TimeCDT,TemperatureF,Dew PointF,Humidity,Sea Level PressureIn,VisibilityMPH,Wind Direction,Wind SpeedMPH,Gust SpeedMPH,PrecipitationIn,Events,Conditions,WindDirDegrees,DateUTC
12:53 AM,68.0,57.9,70,30.04,10.0,SSW,6.9,-,N/A,,Partly Cloudy,200,2013-05-03 05:53:00
1:53 AM,68.0,57.0,68,30.03,10.0,SSW,5.8,-,N/A,,Scattered Clouds,200,2013-05-03 06:53:00
2:53 AM,66.9,57.0,70,30.02,10.0,South,4.6,-,N/A,,Mostly Cloudy,170,2013-05-03 07:53:00
3:53 AM,64.9,57.0,75,30.02,10.0,SE,4.6,-,N/A,,Mostly Cloudy,140,2013-05-03 08:53:00
4:53 AM,64.0,57.0,78,30.01,10.0,SE,5.8,-,N/A,,Mostly Cloudy,130,2013-05-03 09:53:00
5:53 AM,62.1,55.9,80,30.02,10.0,ESE,4.6,-,N/A,,Overcast,110,2013-05-03 10:53:00
6:53 AM,64.0,57.0,78,30.03,10.0,ESE,4.6,-,N/A,,Mostly Cloudy,120,2013-05-03 11:53:00
7:53 AM,66.0,57.0,73,30.02,10.0,ESE,8.1,-,N/A,,Overcast,120,2013-05-03 12:53:00
8:53 AM,68.0,55.9,65,30.01,10.0,SE,9.2,-,N/A,,Scattered Clouds,130,2013-05-03 13:53:00
9:53 AM,70.0,55.9,61,29.99,10.0,SSE,10.4,-,N/A,,Clear,160,2013-05-03 14:53:00
10:53 AM,75.9,54.0,46,29.98,10.0,SE,23.0,26.5,N/A,,Mostly Cloudy,130,2013-05-03 15:53:00
11:53 AM,75.0,54.0,48,29.96,10.0,SE,15.0,25.3,N/A,,Scattered Clouds,140,2013-05-03 16:53:00
12:53 PM,75.9,55.0,48,29.94,10.0,SSE,16.1,23.0,N/A,,Partly Cloudy,150,2013-05-03 17:53:00
1:53 PM,78.1,52.0,40,29.92,10.0,SE,16.1,24.2,N/A,,Clear,130,2013-05-03 18:53:00
2:53 PM,78.1,52.0,40,29.89,10.0,SSE,19.6,27.6,N/A,,Partly Cloudy,160,2013-05-03 19:53:00
3:53 PM,77.0,52.0,42,29.88,10.0,SSE,19.6,-,N/A,,Clear,160,2013-05-03 20:53:00
4:53 PM,75.9,52.0,43,29.87,10.0,SE,19.6,24.2,N/A,,Mostly Cloudy,130,2013-05-03 21:53:00
5:53 PM,73.0,53.1,49,29.88,10.0,SSE,21.9,29.9,N/A,,Mostly Cloudy,150,2013-05-03 22:53:00
6:53 PM,69.1,55.0,61,29.89,10.0,SSE,12.7,20.7,0.00,Rain,Light Rain,150,2013-05-03 23:53:00
7:53 PM,69.1,52.0,54,29.90,10.0,SSE,16.1,24.2,0.00,,Mostly Cloudy,150,2013-05-04 00:53:00
8:53 PM,68.0,51.1,55,29.90,10.0,SE,11.5,-,N/A,,Clear,140,2013-05-04 01:53:00
9:53 PM,68.0,51.1,55,29.90,10.0,SE,10.4,18.4,N/A,,Partly Cloudy,140,2013-05-04 02:53:00
10:53 PM,66.9,52.0,59,29.90,10.0,SE,10.4,-,N/A,,Overcast,140,2013-05-04 03:53:00
11:53 PM,66.0,52.0,60,29.90,10.0,SE,6.9,-,N/A,,Overcast,140,2013-05-04 04:53:00